Change the Weather History Date:

Thursday, October 24, 2013

  Actual Average Record
Temperature  
Mean Temperature 41 °F 54 °F  
Max Temperature 53 °F 67 °F 84 °F (1963)
Min Temperature 28 °F 41 °F 27 °F (2006)
Degree Days  
Heating Degree Days 24 11  
Month to date heating degree days 142 195  
Since 1 July heating degree days 161 248  
Cooling Degree Days 0 0  
Month to date cooling degree days 25 9  
Year to date cooling degree days 1003 977  
Moisture  
Dew Point 31 °F    
Average Humidity 69    
Maximum Humidity 92    
Minimum Humidity 46    
Precipitation  
Precipitation 0.02 in 0.07 in 0.96 in (1971)
Month to date precipitation 0.63 1.57  
Year to date precipitation 47.35 34.01  
Snow  
Snow 0.00 in 0.00 in - ()
Month to date snowfall 0.0 0.0  
Since 1 July snowfall 0.0 0.0  
Since 1 September snowfall 0.0 0.0  
Snow Depth 0.00 in    
Sea Level Pressure  
Sea Level Pressure 30.13 in    
Wind  
Wind Speed 5 mph (West)    
Max Wind Speed 17 mph    
Max Gust Speed 22 mph    
Visibility 10 miles    
Events Rain    
T = Trace of Precipitation, MM = Missing Value Source: NWS Daily Summary

Daily Weather History Graph

Daily Weather History Graph

Search for Another Location

Airport or City:

Trip Planner

Search our weather history database for the weather conditions in past years. The results will help you decide how hot, cold, wet, or windy it might be!

Date:

Astronomy

Oct. 24, 2013 Rise Set
Actual Time 7:45 AM EDT 6:41 PM EDT
Civil Twilight 7:18 AM EDT 7:07 PM EDT
Nautical Twilight 6:48 AM EDT 7:38 PM EDT
Astronomical Twilight 6:18 AM EDT 8:07 PM EDT
Moon 11:08 PM EDT (10/24) 12:41 PM EDT (10/24)
Length of Visible Light 11h 48m
Length of Day
10h 56m
Waning Gibbous, 71% of the Moon is Illuminated
Oct 24
Waning Gibbous
Oct 26
Last Quarter
Nov 3
New
Nov 10
First Quarter
Nov 17
Full

Hourly Weather History & Observations

Time (EDT) Temp. Windchill Dew Point Humidity Pressure Visibility Wind Dir Wind Speed Gust Speed Precip Events Conditions
12:53 AM 34.0 °F - 28.0 °F 79% 30.07 in 10.0 mi Calm Calm - N/A   Clear
1:53 AM 33.1 °F - 28.9 °F 85% 30.09 in 10.0 mi Calm Calm - N/A   Clear
2:53 AM 30.0 °F - 27.0 °F 88% 30.10 in 10.0 mi Calm Calm - N/A   Clear
3:53 AM 30.0 °F - 27.0 °F 88% 30.10 in 8.0 mi Calm Calm - N/A   Partly Cloudy
4:53 AM 28.9 °F - 27.0 °F 92% 30.11 in 7.0 mi Calm Calm - N/A   Mostly Cloudy
5:53 AM 32.0 °F - 28.9 °F 88% 30.12 in 8.0 mi Calm Calm - N/A   Mostly Cloudy
6:53 AM 33.1 °F - 30.0 °F 89% 30.12 in 9.0 mi Calm Calm - N/A   Overcast
7:53 AM 34.0 °F - 30.9 °F 89% 30.13 in 9.0 mi Calm Calm - N/A   Overcast
8:53 AM 37.0 °F - 32.0 °F 82% 30.14 in 10.0 mi Calm Calm - N/A   Overcast
9:53 AM 39.0 °F - 33.1 °F 79% 30.15 in 10.0 mi Calm Calm - N/A   Overcast
10:53 AM 42.1 °F - 33.1 °F 70% 30.15 in 10.0 mi Calm Calm - N/A   Overcast
11:53 AM 46.0 °F 41.0 °F 33.1 °F 61% 30.14 in 10.0 mi WSW 10.4 mph - N/A   Mostly Cloudy
12:53 PM 48.9 °F - 30.9 °F 50% 30.13 in 10.0 mi West 10.4 mph - N/A   Mostly Cloudy
1:53 PM 48.9 °F - 30.9 °F 50% 30.12 in 10.0 mi WSW 11.5 mph - N/A   Mostly Cloudy
2:53 PM 50.0 °F - 30.9 °F 48% 30.10 in 10.0 mi West 10.4 mph - N/A   Mostly Cloudy
3:53 PM 48.9 °F - 30.9 °F 50% 30.10 in 10.0 mi NW 10.4 mph - N/A   Overcast
4:53 PM 48.0 °F - 30.9 °F 52% 30.11 in 10.0 mi NW 6.9 mph - N/A   Overcast
5:53 PM 48.0 °F - 33.1 °F 56% 30.11 in 10.0 mi West 9.2 mph - 0.00 in   Mostly Cloudy
6:53 PM 46.9 °F - 32.0 °F 56% 30.12 in 10.0 mi WSW 10.4 mph - N/A   Overcast
7:53 PM 45.0 °F 41.2 °F 33.1 °F 63% 30.14 in 10.0 mi West 6.9 mph - N/A   Mostly Cloudy
8:53 PM 43.0 °F 37.2 °F 34.0 °F 71% 30.16 in 10.0 mi NW 10.4 mph - N/A   Overcast
9:53 PM 42.1 °F 37.7 °F 35.1 °F 76% 30.17 in 10.0 mi WNW 6.9 mph - 0.01 in Rain Light Rain
10:53 PM 42.1 °F 40.2 °F 36.0 °F 79% 30.19 in 10.0 mi WSW 3.5 mph - 0.01 in   Overcast
11:53 PM 39.9 °F 36.7 °F 34.0 °F 79% 30.20 in 10.0 mi NNW 4.6 mph - N/A   Overcast